{"data":{"norad_id":64320,"intl_designator":"2025-124D","name":"STARLINK-11594 [DTC]","alt_names":[],"object_type":"PAYLOAD","status":"ACTIVE","operator":null,"country":"US","launch_date":"2025-06-10","launch_site_code":"AFETR","launch_vehicle":null,"mission":null,"orbit_class":"UNKNOWN","rcs_meters":null,"size_class":null,"mass_kg":null,"dimensions":null,"purposes":["comms"],"wikipedia_slug":null,"has_3d_model":false,"image_url":null,"decayed_at":null,"tle_current":{"epoch":"2026-09-20T16:00:01.999584Z","epoch_age_seconds":123184,"freshness":"FRESH","line1":"1 64320U 25124D   26263.66668981 -.00119376  00000+0 -93820-3 0  9991","line2":"2 64320  43.0002 294.3255 0001648 276.6915 137.2482 15.70890298  6003","mean_motion":15.70890298,"eccentricity":0.0001648,"inclination_deg":43.0002,"raan_deg":294.3255,"arg_perigee_deg":276.6915,"mean_anomaly_deg":137.2482,"bstar":-0.0009382,"rev_number":600,"period_min":91.667763295334,"perigee_km":355.24146063448,"apogee_km":357.46114797958,"semimajor_km":6734.488304307,"source":"CELESTRAK","updated_at":"2026-09-21T09:00:35.311098Z"}}}